Weather Roundup
Issued by NWS

Home | Current Version | Previous Version | Graphics & Text | Print | Product List | Glossary Off
Versions: 1 2 3 4 5 6 7 8 9 10 11 12 13 14 15 16 17 18 19 20 21 22 23 24 25 26 27 28 29 30 31 32 33 34 35 36 37 38 39 40 41 42 43 44 45 46 47 48 49 50

000
NZUS93 KARX 060210
HRRWXR

CURRENT HOURLY OBSERVATIONS ACROSS
MUCH OF THE UPPER MISSISSIPPI VALLEY
NATIONAL WEATHER SERVICE LA CROSSE WI
900 PM CDT TUE MAY 05 2015


...SOUTHEAST MINNESOTA...


CITY           SKY/WX    TMP DP  RH WIND       PRES   REMARKS
ROCHESTER      CLOUDY    53  51  93 SE15      30.15F
ROCHESTER/MAYO CLOUDY    53  53 100 E10       30.14F
WINONA         DRIZZLE   54  52  94 SE9       30.18S
AUSTIN         CLOUDY    54  52  94 SE13      30.12S
ALBERT LEA     CLOUDY    54  54 100 E12       30.11S
DODGE CENTER   CLOUDY    54  52  94 SE14      30.13F
PRESTON        CLOUDY    52  51  95 E10       30.16S
OWATONNA       CLOUDY    54  52  94 E14G23    30.11F
FARIBAULT      CLOUDY    54  52  94 E10       30.12F
$$

...ELSEWHERE IN MINNESOTA...


CITY           SKY/WX    TMP DP  RH WIND       PRES   REMARKS
MINNEAPOLIS    LGT RAIN  58  54  86 SE10      30.13S
INTNL FALLS    CLEAR     56  32  40 SE3       30.07S
DULUTH         PTCLDY    56  27  32 E14       30.15R
RED WING       LGT RAIN  57  54  88 SE9       30.15S
REDWOOD FALLS  CLOUDY    58  53  84 SE16      30.06S
MANKATO        CLOUDY    55  52  88 SE14      30.10S
WORTHINGTON    CLOUDY    57  54  88 E14       30.04F
FAIRMONT       CLOUDY    55  50  82 SE14      30.08S
$$

...SOUTHWEST WISCONSIN...


CITY           SKY/WX    TMP DP  RH WIND       PRES   REMARKS
LA CROSSE      RAIN      56  53  90 SE5       30.18S FOG
PRAIRIE DU CHI CLOUDY    55  54  97 E6        30.17R
BOSCOBEL       CLOUDY    56  53  90 NE5       30.18F FOG
LONE ROCK      LGT RAIN  55  52  89 E9        30.19S
PLATTEVILLE    CLOUDY    54  53  95 E14       30.18R
FORT MC COY    DRIZZLE   54  48  80 E8        30.20S
CAMP DOUGLAS   CLOUDY    55  54  94 E8        30.20R
VIROQUA        CLOUDY    52  52 100 E10       30.18S
WIS DELLS      NOT AVBL
$$

...ELSEWHERE IN WISCONSIN...


CITY           SKY/WX    TMP DP  RH WIND       PRES   REMARKS
MILWAUKEE      CLOUDY    46  41  82 NE5       30.25R
MADISON        CLOUDY    54  48  80 E12       30.21S
GREEN BAY      CLOUDY    58  32  37 CALM      30.25R
EAU CLAIRE     CLOUDY    61  43  51 SE14      30.18R
BLACK RVR FLS  RAIN      54  49  85 E3        30.20R
MEDFORD        MOCLDY    56  27  32 SE5       30.21S
WAUSAU         MOCLDY    59  17  19 SE10      30.21S
WIS RAPIDS     CLOUDY    59  36  42 SE8       30.23R
MARSHFIELD     CLOUDY    59  37  44 SE9       30.21S
RICE LAKE      PTCLDY    60  29  30 E9        30.18S
$$

...NORTHEAST IOWA...


CITY           SKY/WX    TMP DP  RH WIND       PRES   REMARKS
DECORAH        CLOUDY    54  54 100 E8        30.15S FOG
MASON CITY     FOG       55  55 100 E10       30.12S VSB 1
CHARLES CITY   CLOUDY    55  55 100 E10       30.13R FOG
OELWEIN        CLOUDY    55  55 100 E15       30.14S FOG
$$

...ELSEWHERE IN IOWA...


CITY           SKY/WX    TMP DP  RH WIND       PRES   REMARKS
DES MOINES     CLOUDY    74  57  55 SE7       30.04S
IOWA CITY      CLOUDY    63  60  90 E9G18     30.13R FOG
FORT DODGE     CLOUDY    61  57  88 E16       30.07R
$$

...NORTHERN ILLINOIS...


CITY           SKY/WX    TMP DP  RH WIND       PRES   REMARKS
CHICAGO-OHARE  CLOUDY    49  47  93 NE7       30.21S FOG
CHICAGO-MIDWAY MOCLDY    54  49  83 NE6       30.21R
MOLINE         CLOUDY    63  59  87 E14       30.14R FOG
ROCKFORD       CLOUDY    53  49  86 E8        30.22S
PEORIA         CLEAR     72  65  78 E13       30.13R HAZE
$$

NOTE: "FAIR" INDICATES FEW OR NO CLOUDS BELOW 12,000 FEET WITH NO
SIGNIFICANT WEATHER AND/OR OBSTRUCTIONS TO VISIBILITY. WIND
SPEEDS ARE IN MILES-PER-HOUR.



USA.gov is the U.S. government's official web portal to all federal, state and local government web resources and services.